Home > Weather > Kempten > Past weeks

Flag for Germany Past Weather in Kempten, Bavaria, Germany — Yesterday and Last 2 Weeks

Now
54 °F

Cool.


Feels Like: 54 °F
Forecast: 56 / 84 °F
Wind: 1 mph from East

Location: Altenstadt Airport

Current Time: Aug 25, 2016 at 6:40:32 AM

Latest Report: Aug 25, 2016 at 5:20 AM


Visibility: N/A

Pressure: 30.15 "Hg (27.81 "Hg at 673m altitude)

Humidity: 94%

Dew Point: 52 °F

Location of KemptenLocation

Past Weather in Kempten — Graph

°F

Kempten Temperature Yesterday

Maximum temperature yesterday: 75 °F (at 2:20 PM)
Minimum temperature yesterday: 52 °F (at 5:20 AM)
Average temperature yesterday: 64 °F

High & Low Weather Summary for the Past Weeks

 TemperatureHumidityPressure
High81 °F (Aug 14, 5:20 PM)100% (Aug 10, 5:20 AM)30.45 "Hg (Aug 10, 5:20 AM)
Low46 °F (Aug 11, 2:20 AM)47% (Aug 13, 6:20 PM)29.89 "Hg (Aug 18, 4:20 AM)
Average60 °F79%30.17 "Hg
* Reported Aug 10 5:20 AM — Aug 25 5:20 AM, Kempten, Weather by CustomWeather, © 2016

Note: Actual official high and low records may vary slightly from our data, if they occured in-between our weather recording intervals... More about our weather records

Advertising

Kempten Weather History for the Previous 24 Hours

Scroll right to see more
 ConditionsComfort  
Time TempWeatherWind HumidityBarometerVisibility
5:20 AM
Thu, Aug 25
54 °FCool.1 mph94%30.15 "HgN/A
4:20 AM54 °FCool.1 mph94%30.18 "HgN/A
3:20 AM55 °FCool.1 mph94%30.18 "HgN/A
2:20 AM55 °FCool.1 mph94%30.18 "HgN/A
1:20 AM57 °FCool.2 mph88%30.21 "HgN/A
12:20 AM59 °FCool.7 mph82%30.21 "HgN/A
11:20 PM
Wed, Aug 24
63 °FMild.8 mph77%30.21 "HgN/A
10:20 PM63 °FMild.7 mph77%30.24 "HgN/A
9:20 PM64 °FMild.7 mph78%30.24 "HgN/A
8:20 PM68 °FMild.10 mph69%30.24 "HgN/A
7:20 PM72 °FMild.13 mph65%30.24 "HgN/A
6:20 PM73 °FPassing clouds.14 mph57%30.24 "HgN/A
5:20 PM75 °FPassing clouds.14 mph54%30.24 "HgN/A
4:20 PM75 °FPassing clouds.14 mph50%30.24 "HgN/A
3:20 PM75 °FPassing clouds.14 mph50%30.27 "HgN/A
2:20 PM75 °FMild.14 mph50%30.27 "HgN/A
1:20 PM73 °FMild.13 mph57%30.27 "HgN/A
12:20 PM72 °FMild.17 mph57%30.27 "HgN/A
11:20 AM70 °FMild.13 mph64%30.27 "HgN/A
10:20 AM68 °FMild.10 mph64%30.30 "HgN/A
9:20 AM64 °FMild.5 mph78%30.27 "HgN/A
8:20 AM59 °FCool.2 mph88%30.30 "HgN/A
7:20 AM54 °FFog.No wind94%30.27 "HgN/A
7:02 AM52 °FFog.1 mph100%30.27 "HgN/A
6:20 AM52 °FFog.1 mph100%30.27 "Hg1 mi
Weather by CustomWeather, © 2016

See weather overviewHow to use our weather pages